Location: Bauerbach
(50.4985°N, 10.3912°E)
Time: 17:24:44
(UTC+00:00)

BREEZE-M DEB (TANK) - Visible Passes

Search period start: 11 April 2026 00:00
Search period end: 21 April 2026 00:00
Orbit: 953 x 35665 km, 47.4° (Epoch: 11 April)

Date Brightness Start Highest point End Pass type
(mag) Time Alt. Az. Time Alt. Az. Time Alt. Az.
13 Apr 3.3 01:23:07 53° WSW 01:24:07 65° S 01:29:37 10° ESE visible
13 Apr 4.9 22:31:55 10° WSW 22:49:50 12° E 22:50:11 10° E visible
14 Apr 5.7 19:38:34 10° SSW 20:04:24 32° SSE 20:10:02 17° E visible
17 Apr 3.5 01:53:10 24° W 01:56:07 54° SSW 02:02:20 10° ESE visible
17 Apr 4.2 23:06:59 10° WSW 23:19:48 32° E 23:22:12 10° E visible
18 Apr 5.3 20:14:30 10° SW 20:37:24 40° SSE 20:43:09 13° E visible
